BLOCK DM-SL R/B, 54034

Orbit data source: Space-Track

BLOCK DM-SL R/B, 54034 is space debris in GEO originally from a launch on Wed, 12 Oct 2022 UTC launched from the Tyuratam Missile And Space Complex (TTMTR). Debris objects in space refer to the collection of defunct objects orbiting the Earth. Examples of debris include non-operational satellites, rocket bodies, and fragments generated from explosions, collisions, or faulty payload assembly.

Not visible in the next 10 days
BLOCK DM-SL R/B details
Identifier
54034, 2022-131B
Orbit
GEO
Last TLE update9 hours ago
Origin
Flag of CISVVKO VKS (CIS)
ManufacturerRKKE
MissionSpacecraft
Bus & MotorBLOK DM2, 11D58M
Mass2,440 kg wet, 2,440 kg dry
Launch date (UTC)
2022-10-12 (2 years ago)
Launch vehicleUnknown
Launch site
Tyuratam Missile And Space Complex (TTMTR)
Object type
Payload
Rocket body
Debris
Shape & HBRCyl, 7.1 m
Radar Cross Section26.008 m², Medium (>0.1 m² and < 1m²)

Expand to show TLE details & history

TLE from 9 hours ago
0 BLOCK DM-SL R/B
1 54034U 22131B   24361.04079937 -.00000125  00000-0  00000+0 0  9998
2 54034   1.9632  85.4910 0078934  23.9374 335.7827  0.97749959  7871
Epoch: 2024-12-26T00:58Z
Definitive object data (Epoch: 2024-12-26T00:58:45.065Z)
Latitude-0.00001°
Longitude-24.88142°
Altitude36,198.456 km
Speed3.071 km/s
True Right ascension05h 39m 19s
True Declination0° 00' 00"
Sunlit
Object was in daylight at TLE epoch
Visualization TLE readout
Latitude1.34475°
Longitude112.00619°
Altitude36,635.458 km
Speed3.04 km/s
Apparent Right ascension15h 12m 55s
Apparent Declination-4° 08' 43"
Sunlit
Object is in daylight
Visualization observer readout
Local Sidereal Time09:35:00
Azimuth96.722° ESE
Elevation1.559°
Doppler factor1
Orbital elements
Apogee altitude36,848.293 km
Perigee altitude36,171.23 km
Semi-major axis42,887.899 km
Eccentricity0.0078934
Inclination1.9632°
RAAN85.491°
Arg. of periapsis23.9374°
True anomaly335.4083°
Mean anomaly335.7827°
Eccentric anomaly335.59584°
Mean motion0.24437 °/min
BSTARUnknown
Orbital period1473.2 mins
Loading historical data...
54034 neighbors
Authenticating...
Loading maneuver chart data...
Loading historical data...
Loading historical data...
Loading historical data...
Loading historical data...
Loading historical data...
Loading historical data...
Loading historical data...
Other satellites on launch #131 in the year 2022 (2022-10-12 UTC)

BLOCK DM-SL R/B Visibility forecast

Observer location: undefined°, undefined

BLOCK DM-SL R/B is not visible in the next 10 days
Span
Click to sort rows by Start time (UTC) header in descending order
Start Az.
Max El. time (UTC)
Max El. Az.
Max El.
End time (UTC)
End Az.
|